Weather History for Kenai, AK

Change the Weather History Date:

Monday, November 17, 2014

  Actual Average Record
Temperature  
Mean Temperature 38 °F -  
Max Temperature 39 °F 28 °F 43 °F (1957)
Min Temperature 37 °F 13 °F -17 °F (1956)
Degree Days  
Heating Degree Days 27    
Moisture  
Dew Point 33 °F    
Average Humidity 83    
Maximum Humidity 89    
Minimum Humidity 68    
Precipitation  
Precipitation 0.00 in - - ()
Sea Level Pressure  
Sea Level Pressure 30.02 in    
Wind  
Wind Speed 15 mph (NNE)    
Max Wind Speed 20 mph    
Max Gust Speed 29 mph    
Visibility 10 miles    
Events      
Averages and records for this station are not official NWS values.
T = Trace of Precipitation, MM = Missing Value Source: NWS Daily Summary

Daily Weather History Graph

Daily Weather History Graph

Search for Another Location

Airport:

Trip Planner

Search our weather history database for the weather conditions in past years. The results will help you decide how hot, cold, wet, or windy it might be!

Date:

Astronomy

Nov. 17, 2014 Rise Set
Actual Time 9:12 AM AKST 4:26 PM AKST
Civil Twilight 8:21 AM AKST 5:17 PM AKST
Nautical Twilight 7:27 AM AKST 6:11 PM AKST
Astronomical Twilight 6:37 AM AKST 7:01 PM AKST
Moon 3:05 AM AKST (11/17) 3:06 PM AKST (11/17)
Length of Visible Light 8h 56m
Length of Day
7h 14m
Waning Crescent, 21% of the Moon is Illuminated
Nov 17
Waning Crescent
Nov 22
New
Nov 29
First Quarter
Dec 6
Full
Dec 14
Last Quarter

Hourly Weather History & Observations

Time (AKST) Temp. Windchill Dew Point Humidity Pressure Visibility Wind Dir Wind Speed Gust Speed Precip Events Conditions
12:53 AM 37.9 °F 28.9 °F 28.0 °F 68% 30.02 in 10.0 mi North 16.1 mph - N/A   Overcast
1:53 AM 37.9 °F 29.2 °F 30.9 °F 76% 30.03 in 10.0 mi North 15.0 mph - 0.00 in   Overcast
2:53 AM 37.0 °F 28.1 °F 33.1 °F 86% 30.04 in 10.0 mi North 15.0 mph - 0.00 in   Overcast
3:53 AM 37.9 °F 28.2 °F 33.1 °F 83% 30.05 in 10.0 mi North 18.4 mph - 0.00 in   Overcast
4:53 AM 37.9 °F 29.2 °F 33.1 °F 83% 30.05 in 10.0 mi NNE 15.0 mph - N/A   Overcast
5:53 AM 37.9 °F 29.6 °F 33.1 °F 83% 30.06 in 10.0 mi North 13.8 mph - N/A   Overcast
6:53 AM 37.9 °F 29.2 °F 33.1 °F 83% 30.07 in 10.0 mi NNE 15.0 mph - 0.00 in   Overcast
7:53 AM 37.0 °F 29.3 °F 34.0 °F 89% 30.07 in 10.0 mi NNE 11.5 mph - 0.00 in   Overcast
8:53 AM 37.4 °F 29.3 °F 33.8 °F 87% 30.07 in 10.0 mi NNE 12.7 mph - N/A   Overcast
9:53 AM 37.4 °F 29.8 °F 33.8 °F 87% 30.07 in 10.0 mi NNE 11.5 mph - N/A   Overcast
10:53 AM 37.9 °F 30.9 °F 34.0 °F 86% 30.09 in 10.0 mi NNE 10.4 mph - N/A   Overcast
11:53 AM 39.9 °F 32.5 °F 34.0 °F 79% 30.09 in 10.0 mi North 12.7 mph - N/A   Overcast
12:53 PM 39.0 °F 31.8 °F 34.0 °F 82% 30.08 in 10.0 mi NNE 11.5 mph - N/A   Clear
1:53 PM 39.0 °F 31.4 °F 35.1 °F 86% 30.07 in 10.0 mi NNE 12.7 mph - N/A   Mostly Cloudy
2:53 PM 39.0 °F 31.0 °F 35.1 °F 86% 30.05 in 10.0 mi NNE 13.8 mph - N/A   Mostly Cloudy
3:53 PM 39.0 °F 31.0 °F 35.1 °F 86% 30.03 in 10.0 mi NNE 13.8 mph - N/A   Overcast
4:53 PM 37.9 °F 28.9 °F 34.0 °F 86% 30.01 in 10.0 mi North 16.1 mph - N/A   Partly Cloudy
5:53 PM 37.9 °F 29.2 °F 34.0 °F 86% 29.99 in 10.0 mi NNE 15.0 mph - N/A   Clear
6:53 PM 37.9 °F 28.9 °F 33.1 °F 83% 29.97 in 10.0 mi NNE 16.1 mph - N/A   Clear
7:53 PM 37.9 °F 28.9 °F 33.1 °F 83% 29.95 in 10.0 mi NNE 16.1 mph - N/A   Clear
8:53 PM 37.9 °F 28.5 °F 33.1 °F 83% 29.93 in 10.0 mi NNE 17.3 mph - N/A   Clear
9:53 PM 37.9 °F 28.9 °F 33.1 °F 83% 29.91 in 10.0 mi NNE 16.1 mph - N/A   Clear
10:53 PM 37.9 °F 28.2 °F 33.1 °F 83% 29.88 in 10.0 mi NNE 18.4 mph - N/A   Clear
11:53 PM 39.0 °F 29.3 °F 33.1 °F 79% 29.85 in 10.0 mi NNE 19.6 mph 28.8 mph N/A   Clear